This is the latest recevied weather packets stored in our database for station/object IZ8FMH-11. If no packets are shown the sender has not sent any weather packets the latest 10 day(s).
| Time | Temp. | Humidity | Pressure | Rain* | Wind** | Luminosity | Snow |
|---|---|---|---|---|---|---|---|
| 1788134700 | 85° F | 69% | 758.9 mmHg | - | - | - | - |
| 1788132900 | 85° F | 64% | 758.8 mmHg | - | - | - | - |
| 1788131100 | 85° F | 64% | 758.8 mmHg | - | - | - | - |
| 1788127500 | 85° F | 62% | 758.7 mmHg | - | - | - | - |
| 1788123900 | 86° F | 66% | 758.6 mmHg | - | - | - | - |
| 1788122100 | 87° F | 68% | 758.6 mmHg | - | - | - | - |
| 1788120300 | 87° F | 68% | 758.5 mmHg | - | - | - | - |
| 1788118500 | 88° F | 67% | 758.3 mmHg | - | - | - | - |
| 1788116700 | 88° F | 65% | 758.2 mmHg | - | - | - | - |
| 1788114900 | 88° F | 66% | 757.9 mmHg | - | - | - | - |
| 1788113099 | 89° F | 64% | 757.5 mmHg | - | - | - | - |
| 1788111299 | 89° F | 63% | 757.3 mmHg | - | - | - | - |
| 1788109499 | 90° F | 61% | 757 mmHg | - | - | - | - |
| 1788107699 | 91° F | 59% | 757 mmHg | - | - | - | - |
| 1788105899 | 91° F | 53% | 757 mmHg | - | - | - | - |
| 1788104099 | 92° F | 50% | 756.8 mmHg | - | - | - | - |
| 1788102299 | 92° F | 44% | 756.7 mmHg | - | - | - | - |
| 1788100499 | 92° F | 43% | 756.8 mmHg | - | - | - | - |
| 1788098699 | 92° F | 46% | 756.8 mmHg | - | - | - | - |
| 1788096899 | 91° F | 43% | 756.9 mmHg | - | - | - | - |
| 1788095099 | 91° F | 41% | 756.8 mmHg | - | - | - | - |
| 1788093299 | 91° F | 46% | 757.2 mmHg | - | - | - | - |
| 1788091500 | 90° F | 47% | 757.3 mmHg | - | - | - | - |
| 1788089700 | 90° F | 49% | 757.4 mmHg | - | - | - | - |
| 1788087900 | 90° F | 50% | 757.3 mmHg | - | - | - | - |
* Rain since midnight (hover to see other rain measurements)
** Current wind speed in m/s (hover to see current wind gust speed)